When you browse on this site, cookies collect data to enhance your experience and personalize the content and advertising you see.
Visit our Privacy Policy to learn more. By continuing to use the site, you agree to this use of cookies and data.
  • In Spain
  • List of Countries
  • For 7 days
  • Water Temperature
  • Satellite Maps
  • Weather Map
  • Weather Widgets
  • user-avatar
    Login

    Hourly Weather Shushkovo

    Today, 20 March, Wednesday

    Time Temperature Precipitation Wind Pressure Humidity
    00:00 +1°C° 0 mm 2 mps 746 mmHg 97%
    01:00 -1°C° 0 mm 2 mps 746 mmHg 97%
    02:00 -1°C° 0 mm 2 mps 746 mmHg 96%
    03:00 -1°C° 0 mm 2 mps 746 mmHg 95%
    04:00 -1°C° 0 mm 2 mps 746 mmHg 94%
    05:00 -1°C° 0 mm 2 mps 746 mmHg 93%
    06:00 -1°C° 0 mm 2 mps 746 mmHg 93%
    07:00 +1°C° 0 mm 2 mps 747 mmHg 93%
    08:00 +1°C° 0 mm 2 mps 747 mmHg 93%
    09:00 +2°C° 0 mm 2 mps 747 mmHg 92%
    10:00 +2°C° 0 mm 2 mps 747 mmHg 90%
    11:00 +3°C° 0 mm 2 mps 747 mmHg 89%
    12:00 +3°C° 0 mm 2 mps 747 mmHg 87%
    13:00 +2°C° 0 mm 3 mps 747 mmHg 84%
    14:00 +3°C° 0 mm 3 mps 747 mmHg 82%
    15:00 +3°C° 0 mm 2 mps 747 mmHg 83%
    16:00 +2°C° 0 mm 2 mps 747 mmHg 84%
    17:00 +2°C° 0 mm 2 mps 747 mmHg 85%
    18:00 +1°C° 0 mm 2 mps 748 mmHg 86%
    19:00 +1°C° 0 mm 2 mps 748 mmHg 87%
    20:00 +1°C° 0 mm 2 mps 748 mmHg 88%
    21:00 -1°C° 0 mm 2 mps 748 mmHg 89%
    22:00 -2°C° 0 mm 2 mps 748 mmHg 90%
    23:00 -2°C° 0 mm 2 mps 747 mmHg 91%

    Tomorrow, 21 March, Thursday

    Time Temperature Precipitation Wind Pressure Humidity
    00:00 -2°C° 0 mm 2 mps 747 mmHg 89%
    01:00 -2°C° 0 mm 2 mps 747 mmHg 88%
    02:00 -2°C° 0 mm 2 mps 747 mmHg 86%
    03:00 -2°C° 0 mm 2 mps 747 mmHg 85%
    04:00 -2°C° 0 mm 3 mps 746 mmHg 85%
    05:00 -2°C° 0 mm 3 mps 746 mmHg 84%
    06:00 -2°C° 0 mm 3 mps 745 mmHg 82%
    07:00 -2°C° 0 mm 4 mps 745 mmHg 81%
    08:00 -2°C° 0 mm 5 mps 745 mmHg 80%
    09:00 -2°C° 0.3 mm 5 mps 744 mmHg 82%
    10:00 -1°C° 0.3 mm 5 mps 744 mmHg 84%
    11:00 -1°C° 0.3 mm 5 mps 744 mmHg 86%
    12:00 -1°C° 0.2 mm 5 mps 743 mmHg 87%
    13:00 0°C° 0.2 mm 4 mps 743 mmHg 88%
    14:00 0°C° 0.2 mm 4 mps 743 mmHg 89%
    15:00 0°C° 0.1 mm 4 mps 743 mmHg 88%
    16:00 0°C° 0.1 mm 4 mps 743 mmHg 87%
    17:00 0°C° 0.1 mm 4 mps 743 mmHg 87%
    18:00 0°C° 0 mm 4 mps 744 mmHg 87%
    19:00 -1°C° 0 mm 4 mps 744 mmHg 86%
    20:00 -2°C° 0 mm 4 mps 744 mmHg 86%
    21:00 -2°C° 0 mm 4 mps 744 mmHg 88%
    22:00 -1°C° 0 mm 3 mps 745 mmHg 89%
    23:00 -2°C° 0 mm 3 mps 745 mmHg 91%

    Day after tomorrow, 22 March, Friday

    Time Temperature Precipitation Wind Pressure Humidity
    00:00 -2°C° 0 mm 3 mps 745 mmHg 90%
    01:00 -1°C° 0 mm 2 mps 745 mmHg 90%
    02:00 -1°C° 0 mm 2 mps 745 mmHg 90%
    03:00 -1°C° 0 mm 2 mps 745 mmHg 90%
    04:00 -1°C° 0 mm 2 mps 745 mmHg 90%
    05:00 -1°C° 0 mm 2 mps 744 mmHg 91%
    06:00 -1°C° 0 mm 3 mps 744 mmHg 90%
    07:00 0°C° 0 mm 3 mps 744 mmHg 89%
    08:00 0°C° 0 mm 3 mps 744 mmHg 88%
    09:00 +1°C° 0.1 mm 3 mps 743 mmHg 87%
    10:00 +2°C° 0.1 mm 3 mps 743 mmHg 86%
    11:00 +1°C° 0.1 mm 4 mps 742 mmHg 85%
    12:00 +1°C° 0.5 mm 4 mps 742 mmHg 87%
    13:00 +1°C° 0.5 mm 4 mps 741 mmHg 89%
    14:00 +1°C° 0.5 mm 4 mps 741 mmHg 92%
    15:00 +1°C° 0 mm 4 mps 741 mmHg 93%
    16:00 +1°C° 0 mm 4 mps 741 mmHg 94%
    17:00 +2°C° 0 mm 3 mps 741 mmHg 95%
    18:00 +1°C° 0 mm 4 mps 741 mmHg 95%
    19:00 +1°C° 0 mm 4 mps 741 mmHg 94%
    20:00 +1°C° 0 mm 4 mps 741 mmHg 93%
    21:00 0°C° 0 mm 4 mps 741 mmHg 92%
    22:00 0°C° 0 mm 4 mps 742 mmHg 91%
    23:00 -1°C° 0 mm 4 mps 742 mmHg 91%

    23 March, Saturday

    Time Temperature Precipitation Wind Pressure Humidity
    00:00 -1°C° 0 mm 4 mps 742 mmHg 91%
    01:00 -2°C° 0 mm 4 mps 742 mmHg 91%
    02:00 -2°C° 0 mm 4 mps 742 mmHg 91%
    03:00 -3°C° 0 mm 4 mps 742 mmHg 89%
    04:00 -3°C° 0 mm 4 mps 742 mmHg 88%
    05:00 -3°C° 0 mm 4 mps 742 mmHg 86%
    06:00 -3°C° 0 mm 4 mps 742 mmHg 82%
    07:00 -2°C° 0 mm 4 mps 743 mmHg 78%
    08:00 -2°C° 0 mm 4 mps 743 mmHg 73%
    09:00 -1°C° 0 mm 4 mps 743 mmHg 70%
    10:00 0°C° 0 mm 4 mps 743 mmHg 67%
    11:00 +2°C° 0 mm 3 mps 743 mmHg 63%
    12:00 +3°C° 0 mm 3 mps 742 mmHg 61%
    13:00 +4°C° 0 mm 3 mps 742 mmHg 60%
    14:00 +4°C° 0 mm 3 mps 741 mmHg 58%
    15:00 +4°C° 0 mm 3 mps 741 mmHg 62%
    16:00 +3°C° 0 mm 3 mps 740 mmHg 66%
    17:00 +4°C° 0 mm 2 mps 740 mmHg 70%
    18:00 +3°C° 0 mm 3 mps 740 mmHg 77%
    19:00 +3°C° 0 mm 4 mps 739 mmHg 85%
    20:00 +3°C° 0 mm 4 mps 739 mmHg 93%
    21:00 +2°C° 0.1 mm 5 mps 738 mmHg 93%
    22:00 +3°C° 0.1 mm 5 mps 737 mmHg 93%
    23:00 +3°C° 0.1 mm 6 mps 736 mmHg 94%

    24 March, Sunday

    Time Temperature Precipitation Wind Pressure Humidity
    00:00 +3°C° 0.3 mm 6 mps 736 mmHg 93%
    01:00 +4°C° 0.3 mm 6 mps 736 mmHg 93%
    02:00 +4°C° 0.3 mm 6 mps 736 mmHg 93%
    03:00 +3°C° 0 mm 6 mps 736 mmHg 92%
    04:00 +1°C° 0 mm 5 mps 736 mmHg 91%
    05:00 0°C° 0 mm 5 mps 737 mmHg 90%
    06:00 0°C° 0 mm 5 mps 737 mmHg 85%
    07:00 +1°C° 0 mm 6 mps 737 mmHg 81%
    08:00 0°C° 0 mm 7 mps 738 mmHg 76%
    09:00 +1°C° 0 mm 8 mps 737 mmHg 65%
    10:00 +1°C° 0 mm 8 mps 737 mmHg 54%
    11:00 +2°C° 0 mm 9 mps 737 mmHg 43%
    12:00 +2°C° 0 mm 9 mps 737 mmHg 42%
    13:00 +3°C° 0 mm 10 mps 737 mmHg 41%
    14:00 +3°C° 0 mm 10 mps 736 mmHg 40%
    15:00 +2°C° 0 mm 9 mps 736 mmHg 44%
    16:00 +2°C° 0 mm 8 mps 736 mmHg 47%
    17:00 +2°C° 0 mm 7 mps 736 mmHg 51%
    18:00 +1°C° 0 mm 6 mps 736 mmHg 54%
    19:00 -1°C° 0 mm 6 mps 736 mmHg 57%
    20:00 0°C° 0 mm 5 mps 736 mmHg 61%
    21:00 -1°C° 0 mm 5 mps 736 mmHg 61%
    22:00 -1°C° 0 mm 5 mps 736 mmHg 62%
    23:00 -2°C° 0 mm 5 mps 736 mmHg 63%

    25 March, Monday

    Time Temperature Precipitation Wind Pressure Humidity
    00:00 -2°C° 0 mm 5 mps 736 mmHg 64%
    01:00 -2°C° 0 mm 5 mps 736 mmHg 64%
    02:00 -4°C° 0 mm 5 mps 736 mmHg 65%
    03:00 -4°C° 0 mm 5 mps 736 mmHg 66%
    04:00 -4°C° 0 mm 5 mps 736 mmHg 67%
    05:00 -4°C° 0 mm 5 mps 736 mmHg 68%
    06:00 -2°C° 0 mm 5 mps 736 mmHg 64%
    07:00 -2°C° 0 mm 5 mps 736 mmHg 61%
    08:00 -1°C° 0 mm 5 mps 736 mmHg 57%
    09:00 0°C° 0 mm 5 mps 735 mmHg 51%
    10:00 +2°C° 0 mm 5 mps 735 mmHg 46%
    11:00 +3°C° 0 mm 6 mps 734 mmHg 40%
    12:00 +3°C° 0 mm 6 mps 734 mmHg 42%
    13:00 +3°C° 0 mm 6 mps 733 mmHg 45%
    14:00 +3°C° 0 mm 6 mps 732 mmHg 47%
    15:00 +3°C° 0.1 mm 5 mps 732 mmHg 52%
    16:00 +4°C° 0.1 mm 4 mps 731 mmHg 56%
    17:00 +3°C° 0.1 mm 3 mps 731 mmHg 61%
    18:00 +3°C° 0.2 mm 3 mps 730 mmHg 67%
    19:00 +2°C° 0.2 mm 3 mps 730 mmHg 73%
    20:00 +1°C° 0.2 mm 3 mps 729 mmHg 79%
    21:00 +1°C° 0 mm 3 mps 729 mmHg 80%
    22:00 -1°C° 0 mm 4 mps 728 mmHg 80%
    23:00 -1°C° 0 mm 4 mps 728 mmHg 81%
    Show more